Zurück zum Katalog

STARLINK-38047

AktivKommunikationSSO
NORAD 69745·PAYLOAD·🇺🇸 United States

Gestartet Jul 2, 2026 von Vandenberg Space Force Base

Loading…

Nächste Überflüge (nächste 24 Stunden)

TLE

AktuellSource: CelesTrak SupGP

Epoche: Sep 14, 2026, 21:21 UTC

1 69745C 26150G   26257.89006944  .00071709  00000+0  22269-2 0  2570
2 69745  97.2844  96.9284 0001845  92.6804  73.8399 15.33389852    19

Verfolge STARLINK-38047 in Echtzeit mit AllMySat

Download on the App Store